Year,Month,Day,Hour,Minute,Value (Times are PST for temperature in C)
2016,09,15,07,17,6.80
2016,09,15,07,18,6.90
2016,09,15,07,19,6.90
2016,09,15,07,20,6.90
2016,09,15,07,21,6.90
2016,09,15,07,22,6.90
2016,09,15,07,23,6.90
2016,09,15,07,24,6.80
2016,09,15,07,25,6.80
2016,09,15,07,26,6.80
2016,09,15,07,27,6.80
2016,09,15,07,28,6.80
2016,09,15,07,29,6.80
2016,09,15,07,30,6.80
2016,09,15,07,31,6.80
2016,09,15,07,32,6.80
2016,09,15,07,33,6.80
2016,09,15,07,34,6.80
2016,09,15,07,35,6.80
2016,09,15,07,36,6.70
2016,09,15,07,37,6.80
2016,09,15,07,38,6.70
2016,09,15,07,39,6.70
2016,09,15,07,40,6.70
2016,09,15,07,41,6.80
2016,09,15,07,42,6.80
2016,09,15,07,43,6.80
2016,09,15,07,44,6.80
2016,09,15,07,45,6.90
2016,09,15,07,46,7.00
2016,09,15,07,47,7.00
2016,09,15,07,48,7.10
2016,09,15,07,49,7.10
2016,09,15,07,50,7.20
2016,09,15,07,51,7.20
2016,09,15,07,52,7.30
2016,09,15,07,53,7.30
2016,09,15,07,54,7.40
2016,09,15,07,55,7.50
2016,09,15,07,56,7.70
2016,09,15,07,57,7.80
2016,09,15,07,58,7.90
2016,09,15,07,59,8.00
2016,09,15,08,00,8.20
2016,09,15,08,01,8.30
2016,09,15,08,02,8.40
2016,09,15,08,03,8.60
2016,09,15,08,04,8.70
2016,09,15,08,05,8.80
2016,09,15,08,06,9.00
2016,09,15,08,07,9.10
2016,09,15,08,08,9.30
2016,09,15,08,09,9.40
2016,09,15,08,10,9.60
2016,09,15,08,11,9.70
2016,09,15,08,12,9.80
2016,09,15,08,13,9.90
2016,09,15,08,14,10.00
2016,09,15,08,15,10.10
2016,09,15,08,16,10.20
2016,09,15,08,17,10.30
2016,09,15,08,18,10.30
2016,09,15,08,19,10.40
2016,09,15,08,20,10.50
2016,09,15,08,21,10.60
2016,09,15,08,22,10.70
2016,09,15,08,23,10.70
2016,09,15,08,24,10.80
2016,09,15,08,25,10.80
2016,09,15,08,26,10.90
2016,09,15,08,27,10.90
2016,09,15,08,28,11.00
2016,09,15,08,29,11.00
2016,09,15,08,30,11.10
2016,09,15,08,31,11.10
2016,09,15,08,32,11.20
2016,09,15,08,33,11.20
2016,09,15,08,34,11.20
2016,09,15,08,35,11.30
2016,09,15,08,36,11.30
2016,09,15,08,37,11.40
2016,09,15,08,38,11.40
2016,09,15,08,39,11.50
2016,09,15,08,40,11.60
2016,09,15,08,41,11.70
2016,09,15,08,42,11.70
2016,09,15,08,43,11.80
2016,09,15,08,44,11.80
2016,09,15,08,45,11.90
2016,09,15,08,46,12.00
2016,09,15,08,47,12.10
2016,09,15,08,48,12.20
2016,09,15,08,49,12.20
2016,09,15,08,50,12.30
2016,09,15,08,51,12.30
2016,09,15,08,52,12.30
2016,09,15,08,53,12.40
2016,09,15,08,54,12.50
2016,09,15,08,55,12.60
2016,09,15,08,56,12.70
2016,09,15,08,57,12.70
2016,09,15,08,58,12.80
2016,09,15,08,59,12.90
2016,09,15,09,00,13.00
2016,09,15,09,01,13.10
2016,09,15,09,02,13.20
2016,09,15,09,03,13.30
2016,09,15,09,04,13.30
2016,09,15,09,05,13.40
2016,09,15,09,06,13.50
2016,09,15,09,07,13.50
2016,09,15,09,08,13.60
2016,09,15,09,09,13.60
2016,09,15,09,10,13.70
2016,09,15,09,11,13.70
2016,09,15,09,12,13.70
2016,09,15,09,13,13.80
2016,09,15,09,14,13.80
2016,09,15,09,15,13.80
2016,09,15,09,16,13.90
2016,09,15,09,17,14.00
2016,09,15,09,18,14.10
2016,09,15,09,19,14.20
2016,09,15,09,20,14.30
2016,09,15,09,21,14.40
2016,09,15,09,22,14.40
2016,09,15,09,23,14.50
2016,09,15,09,24,14.60
2016,09,15,09,25,14.60
2016,09,15,09,26,14.70
2016,09,15,09,27,14.70
2016,09,15,09,28,14.70
2016,09,15,09,29,14.80
2016,09,15,09,30,14.90
2016,09,15,09,31,15.00
2016,09,15,09,32,15.10
2016,09,15,09,33,15.20
2016,09,15,09,34,15.30
2016,09,15,09,35,15.40
2016,09,15,09,36,15.40
2016,09,15,09,37,15.60
2016,09,15,09,38,15.70
2016,09,15,09,39,15.80
2016,09,15,09,40,16.00
2016,09,15,09,41,16.10
2016,09,15,09,42,16.20
2016,09,15,09,43,16.30
2016,09,15,09,44,16.30
2016,09,15,09,45,16.40
2016,09,15,09,46,16.50
2016,09,15,09,47,16.60
2016,09,15,09,48,16.70
2016,09,15,09,49,16.70
2016,09,15,09,50,16.70
2016,09,15,09,51,16.70
2016,09,15,09,52,16.70
2016,09,15,09,53,16.70
2016,09,15,09,54,16.70
2016,09,15,09,55,16.80
2016,09,15,09,56,16.80
2016,09,15,09,57,16.80
2016,09,15,09,58,16.80
2016,09,15,09,59,16.80
2016,09,15,10,00,16.80
2016,09,15,10,01,16.90
2016,09,15,10,02,16.90
2016,09,15,10,03,17.00
2016,09,15,10,04,17.00
2016,09,15,10,05,17.10
2016,09,15,10,06,17.10
2016,09,15,10,07,17.20
2016,09,15,10,08,17.20
2016,09,15,10,09,17.20
2016,09,15,10,10,17.20
2016,09,15,10,11,17.20
2016,09,15,10,12,17.20
2016,09,15,10,13,17.30
2016,09,15,10,14,17.30
2016,09,15,10,15,17.40
2016,09,15,10,16,17.50
2016,09,15,10,17,17.50
2016,09,15,10,18,17.50
2016,09,15,10,19,17.60
2016,09,15,10,20,17.60
2016,09,15,10,21,17.60
2016,09,15,10,22,17.70
2016,09,15,10,23,17.70
2016,09,15,10,24,17.70
2016,09,15,10,25,17.70
2016,09,15,10,26,17.70
2016,09,15,10,27,17.80
2016,09,15,10,28,17.80
2016,09,15,10,29,17.90
2016,09,15,10,30,17.90
2016,09,15,10,31,17.90
2016,09,15,10,32,18.00
2016,09,15,10,33,18.00
2016,09,15,10,34,18.00
2016,09,15,10,35,18.10
2016,09,15,10,36,18.10
2016,09,15,10,37,18.20
2016,09,15,10,38,18.30
2016,09,15,10,39,18.40
2016,09,15,10,40,18.40
2016,09,15,10,41,18.30
2016,09,15,10,42,18.30
2016,09,15,10,43,18.30
2016,09,15,10,44,18.40
2016,09,15,10,45,18.50
2016,09,15,10,46,18.50
2016,09,15,10,47,18.60
2016,09,15,10,48,18.70
2016,09,15,10,49,18.80
2016,09,15,10,50,18.80
2016,09,15,10,51,18.80
2016,09,15,10,52,18.80
2016,09,15,10,53,18.80
2016,09,15,10,54,18.80
2016,09,15,10,55,18.70
2016,09,15,10,56,18.60
2016,09,15,10,57,18.50
2016,09,15,10,58,18.40
2016,09,15,10,59,18.40
2016,09,15,11,00,18.40
2016,09,15,11,01,18.20
2016,09,15,11,02,18.10
2016,09,15,11,03,18.00
2016,09,15,11,04,18.00
2016,09,15,11,05,17.90
2016,09,15,11,06,17.90
2016,09,15,11,07,17.80
2016,09,15,11,08,17.80
2016,09,15,11,09,17.80
2016,09,15,11,10,17.90
2016,09,15,11,11,18.00
2016,09,15,11,12,18.00
2016,09,15,11,13,18.00
2016,09,15,11,14,18.10
2016,09,15,11,15,18.10
2016,09,15,11,16,18.00
2016,09,15,11,17,18.00
2016,09,15,11,18,18.10
2016,09,15,11,19,18.10
2016,09,15,11,20,18.20
2016,09,15,11,21,18.20
2016,09,15,11,22,18.30
2016,09,15,11,23,18.30
2016,09,15,11,24,18.30
2016,09,15,11,25,18.30
2016,09,15,11,26,18.20
2016,09,15,11,27,18.20
2016,09,15,11,28,18.10
2016,09,15,11,29,18.10
2016,09,15,11,30,18.20
2016,09,15,11,31,18.30
2016,09,15,11,32,18.30
2016,09,15,11,33,18.40
2016,09,15,11,34,18.50
2016,09,15,11,35,18.50
2016,09,15,11,36,18.50
2016,09,15,11,37,18.60
2016,09,15,11,38,18.60
2016,09,15,11,39,18.60
2016,09,15,11,40,18.60
2016,09,15,11,41,18.70
2016,09,15,11,42,18.70
2016,09,15,11,43,18.70
2016,09,15,11,44,18.60
2016,09,15,11,45,18.50
2016,09,15,11,46,18.50
2016,09,15,11,47,18.40
2016,09,15,11,48,18.40
2016,09,15,11,49,18.40
2016,09,15,11,50,18.40
2016,09,15,11,51,18.40
2016,09,15,11,52,18.50
2016,09,15,11,53,18.60
2016,09,15,11,54,18.60
2016,09,15,11,55,18.70
2016,09,15,11,56,18.70
2016,09,15,11,57,18.80
2016,09,15,11,58,18.80
2016,09,15,11,59,18.80
2016,09,15,12,00,18.70
2016,09,15,12,01,18.70
2016,09,15,12,02,18.60
2016,09,15,12,03,18.50
2016,09,15,12,04,18.50
2016,09,15,12,05,18.40
2016,09,15,12,06,18.40
2016,09,15,12,07,18.40
2016,09,15,12,08,18.30
2016,09,15,12,09,18.30
2016,09,15,12,10,18.30
2016,09,15,12,11,18.40
2016,09,15,12,12,18.40
2016,09,15,12,13,18.50
2016,09,15,12,14,18.50
2016,09,15,12,15,18.60
2016,09,15,12,16,18.60
2016,09,15,12,17,18.60
2016,09,15,12,18,18.70
2016,09,15,12,19,18.70
2016,09,15,12,20,18.80
2016,09,15,12,21,18.80
2016,09,15,12,22,18.70
2016,09,15,12,23,18.70
2016,09,15,12,24,18.70
2016,09,15,12,25,18.70
2016,09,15,12,26,18.70
2016,09,15,12,27,18.70
2016,09,15,12,28,18.70
2016,09,15,12,29,18.70
2016,09,15,12,30,18.70
2016,09,15,12,31,18.80
2016,09,15,12,32,18.80
2016,09,15,12,33,18.80
2016,09,15,12,34,18.80
2016,09,15,12,35,18.80
2016,09,15,12,36,18.80
2016,09,15,12,37,18.90
2016,09,15,12,38,18.90
2016,09,15,12,39,18.90
2016,09,15,12,40,19.00
2016,09,15,12,41,19.00
2016,09,15,12,42,19.10
2016,09,15,12,43,19.10
2016,09,15,12,44,19.10
2016,09,15,12,45,19.20
2016,09,15,12,46,19.20
2016,09,15,12,47,19.20
2016,09,15,12,48,19.20
2016,09,15,12,49,19.30
2016,09,15,12,50,19.30
2016,09,15,12,51,19.30
2016,09,15,12,52,19.20
2016,09,15,12,53,19.30
2016,09,15,12,54,19.30
2016,09,15,12,55,19.30
2016,09,15,12,56,19.30
2016,09,15,12,57,19.40
2016,09,15,12,58,19.40
2016,09,15,12,59,19.50
2016,09,15,13,00,19.60
2016,09,15,13,01,19.70
2016,09,15,13,02,19.70
2016,09,15,13,03,19.70
2016,09,15,13,04,19.70
2016,09,15,13,05,19.80
2016,09,15,13,06,19.80
2016,09,15,13,07,19.90
2016,09,15,13,08,20.00
2016,09,15,13,09,20.00
2016,09,15,13,10,20.10
2016,09,15,13,11,20.10
2016,09,15,13,12,20.10
2016,09,15,13,13,20.20
2016,09,15,13,14,20.20
2016,09,15,13,15,20.30
2016,09,15,13,16,20.30
2016,09,15,13,17,20.30
2016,09,15,13,18,20.30
2016,09,15,13,19,20.30
2016,09,15,13,20,20.20
2016,09,15,13,21,20.10
2016,09,15,13,22,20.10
2016,09,15,13,23,20.00
2016,09,15,13,24,20.00
2016,09,15,13,25,20.00
2016,09,15,13,26,20.00
2016,09,15,13,27,20.10
2016,09,15,13,28,20.10
2016,09,15,13,29,20.10
2016,09,15,13,30,20.10
2016,09,15,13,31,20.10
2016,09,15,13,32,20.10
2016,09,15,13,33,20.10
2016,09,15,13,34,20.10
2016,09,15,13,35,20.00
2016,09,15,13,36,20.10
2016,09,15,13,37,20.10
2016,09,15,13,38,20.10
2016,09,15,13,39,20.20
2016,09,15,13,40,20.20
2016,09,15,13,41,20.20
2016,09,15,13,42,20.20
2016,09,15,13,43,20.20
2016,09,15,13,44,20.30
2016,09,15,13,45,20.30
2016,09,15,13,46,20.30
2016,09,15,13,47,20.40
2016,09,15,13,48,20.40
2016,09,15,13,49,20.30
2016,09,15,13,50,20.30
2016,09,15,13,51,20.30
2016,09,15,13,52,20.30
2016,09,15,13,53,20.30
2016,09,15,13,54,20.30
2016,09,15,13,55,20.20
2016,09,15,13,56,20.30
2016,09,15,13,57,20.30
2016,09,15,13,58,20.30
2016,09,15,13,59,20.30
2016,09,15,14,00,20.40
2016,09,15,14,01,20.40
2016,09,15,14,02,20.40
2016,09,15,14,03,20.40
2016,09,15,14,04,20.40
2016,09,15,14,05,20.50
2016,09,15,14,06,20.50
2016,09,15,14,07,20.50
2016,09,15,14,08,20.50
2016,09,15,14,09,20.50
2016,09,15,14,10,20.50
2016,09,15,14,11,20.40
2016,09,15,14,12,20.40
2016,09,15,14,13,20.40
2016,09,15,14,14,20.40
2016,09,15,14,15,20.40
2016,09,15,14,16,20.40
2016,09,15,14,17,20.40
2016,09,15,14,18,20.40
2016,09,15,14,19,20.40
2016,09,15,14,20,20.50
2016,09,15,14,21,20.50
2016,09,15,14,22,20.50
2016,09,15,14,23,20.60
2016,09,15,14,24,20.60
2016,09,15,14,25,20.60
2016,09,15,14,26,20.60
2016,09,15,14,27,20.70
2016,09,15,14,28,20.70
2016,09,15,14,29,20.80
2016,09,15,14,30,20.80
2016,09,15,14,31,20.90
2016,09,15,14,32,20.90
2016,09,15,14,33,20.90
2016,09,15,14,34,20.90
2016,09,15,14,35,20.90
2016,09,15,14,36,21.00
2016,09,15,14,37,21.00
2016,09,15,14,38,21.00
2016,09,15,14,39,21.10
2016,09,15,14,40,21.10
2016,09,15,14,41,21.20
2016,09,15,14,42,21.20
2016,09,15,14,43,21.20
2016,09,15,14,44,21.30
2016,09,15,14,45,21.30
2016,09,15,14,46,21.30
2016,09,15,14,47,21.20
2016,09,15,14,48,21.20
2016,09,15,14,49,21.20
2016,09,15,14,50,21.20
2016,09,15,14,51,21.20
2016,09,15,14,52,21.10
2016,09,15,14,53,21.20
2016,09,15,14,54,21.20
2016,09,15,14,55,21.20
2016,09,15,14,56,21.20
2016,09,15,14,57,21.20
2016,09,15,14,58,21.20
2016,09,15,14,59,21.20
2016,09,15,15,00,21.20
2016,09,15,15,01,21.20
2016,09,15,15,02,21.20
2016,09,15,15,03,21.20
2016,09,15,15,04,21.30
2016,09,15,15,05,21.30
2016,09,15,15,06,21.30
2016,09,15,15,07,21.40
2016,09,15,15,08,21.40
2016,09,15,15,09,21.40
2016,09,15,15,10,21.40
2016,09,15,15,11,21.40
2016,09,15,15,12,21.30
2016,09,15,15,13,21.30
2016,09,15,15,14,21.30
2016,09,15,15,15,21.40
2016,09,15,15,16,21.40
2016,09,15,15,17,21.40
2016,09,15,15,18,21.40
2016,09,15,15,19,21.40
2016,09,15,15,20,21.40
2016,09,15,15,21,21.40
2016,09,15,15,22,21.40
2016,09,15,15,23,21.50
2016,09,15,15,24,21.50
2016,09,15,15,25,21.50
2016,09,15,15,26,21.60
2016,09,15,15,27,21.70
2016,09,15,15,28,21.70
2016,09,15,15,29,21.70
2016,09,15,15,30,21.80
2016,09,15,15,31,21.80
2016,09,15,15,32,21.80
2016,09,15,15,33,21.80
2016,09,15,15,34,21.80
2016,09,15,15,35,21.90
2016,09,15,15,36,21.90
2016,09,15,15,37,21.90
2016,09,15,15,38,21.90
2016,09,15,15,39,21.80
2016,09,15,15,40,21.80
2016,09,15,15,41,21.70
2016,09,15,15,42,21.70
2016,09,15,15,43,21.70
2016,09,15,15,44,21.70
2016,09,15,15,45,21.70
2016,09,15,15,46,21.70
2016,09,15,15,47,21.80
2016,09,15,15,48,21.80
2016,09,15,15,49,21.80
2016,09,15,15,50,21.80
2016,09,15,15,51,21.70
2016,09,15,15,52,21.70
2016,09,15,15,53,21.60
2016,09,15,15,54,21.60
2016,09,15,15,55,21.50
2016,09,15,15,56,21.50
2016,09,15,15,57,21.60
2016,09,15,15,58,21.60
2016,09,15,15,59,21.60
2016,09,15,16,00,21.60
2016,09,15,16,01,21.60
2016,09,15,16,02,21.60
2016,09,15,16,03,21.60
2016,09,15,16,04,21.60
2016,09,15,16,05,21.60
2016,09,15,16,06,21.50
2016,09,15,16,07,21.50
2016,09,15,16,08,21.50
2016,09,15,16,09,21.60
2016,09,15,16,10,21.60
2016,09,15,16,11,21.60
2016,09,15,16,12,21.60
2016,09,15,16,13,21.70
2016,09,15,16,14,21.80
2016,09,15,16,15,21.90
2016,09,15,16,16,22.00
2016,09,15,16,17,22.10
2016,09,15,16,18,22.20
2016,09,15,16,19,22.40
2016,09,15,16,20,22.40
2016,09,15,16,21,22.50
2016,09,15,16,22,22.60
2016,09,15,16,23,22.70
2016,09,15,16,24,22.80
2016,09,15,16,25,22.90
2016,09,15,16,26,22.90
2016,09,15,16,27,22.90
2016,09,15,16,28,22.90
2016,09,15,16,29,22.90
2016,09,15,16,30,22.90
2016,09,15,16,31,22.90
2016,09,15,16,32,22.90
2016,09,15,16,33,22.90
2016,09,15,16,34,22.90
2016,09,15,16,35,22.90
2016,09,15,16,36,22.90
2016,09,15,16,37,22.90
2016,09,15,16,38,22.90
2016,09,15,16,39,22.90
2016,09,15,16,40,22.80
2016,09,15,16,41,22.70
2016,09,15,16,42,22.70
2016,09,15,16,43,22.60
2016,09,15,16,44,22.60
2016,09,15,16,45,22.60
2016,09,15,16,46,22.60
2016,09,15,16,47,22.60
2016,09,15,16,48,22.60
2016,09,15,16,49,22.60
2016,09,15,16,50,22.60
2016,09,15,16,51,22.60
2016,09,15,16,52,22.60
2016,09,15,16,53,22.70
2016,09,15,16,54,22.70
2016,09,15,16,55,22.70
2016,09,15,16,56,22.70
2016,09,15,16,57,22.80
2016,09,15,16,58,22.80
2016,09,15,16,59,22.90
2016,09,15,17,00,22.90
2016,09,15,17,01,22.90
2016,09,15,17,02,22.80
2016,09,15,17,03,22.80
2016,09,15,17,04,22.70
2016,09,15,17,05,22.50
2016,09,15,17,06,22.50
2016,09,15,17,07,22.40
2016,09,15,17,08,22.40
2016,09,15,17,09,22.30
2016,09,15,17,10,22.30
2016,09,15,17,11,22.30
2016,09,15,17,12,22.30
2016,09,15,17,13,22.30
2016,09,15,17,14,22.40
2016,09,15,17,15,22.50
2016,09,15,17,16,22.50
2016,09,15,17,17,22.60
2016,09,15,17,18,22.70
2016,09,15,17,19,22.70
2016,09,15,17,20,22.70
2016,09,15,17,21,22.70
2016,09,15,17,22,22.70
2016,09,15,17,23,22.70
2016,09,15,17,24,22.80
2016,09,15,17,25,22.80
2016,09,15,17,26,22.80
2016,09,15,17,27,22.70
2016,09,15,17,28,22.70
2016,09,15,17,29,22.70
2016,09,15,17,30,22.70
2016,09,15,17,31,22.70
2016,09,15,17,32,22.70
2016,09,15,17,33,22.70
2016,09,15,17,34,22.70
2016,09,15,17,35,22.70
2016,09,15,17,36,22.70
2016,09,15,17,37,22.70
2016,09,15,17,38,22.70
2016,09,15,17,39,22.70
2016,09,15,17,40,22.70
2016,09,15,17,41,22.70
2016,09,15,17,42,22.70
2016,09,15,17,43,22.70
2016,09,15,17,44,22.70
2016,09,15,17,45,22.60
2016,09,15,17,46,22.60
2016,09,15,17,47,22.50
2016,09,15,17,48,22.40
2016,09,15,17,49,22.30
2016,09,15,17,50,22.20
2016,09,15,17,51,22.10
2016,09,15,17,52,22.10
2016,09,15,17,53,22.10
2016,09,15,17,54,22.00
2016,09,15,17,55,22.00
2016,09,15,17,56,22.00
2016,09,15,17,57,22.00
2016,09,15,17,58,22.00
2016,09,15,17,59,22.00
2016,09,15,18,00,22.00
2016,09,15,18,01,21.90
2016,09,15,18,02,21.80
2016,09,15,18,03,21.80
2016,09,15,18,04,21.80
2016,09,15,18,05,21.80
2016,09,15,18,06,21.80
2016,09,15,18,07,21.80
2016,09,15,18,08,21.70
2016,09,15,18,09,21.70
2016,09,15,18,10,21.60
2016,09,15,18,11,21.60
2016,09,15,18,12,21.50
2016,09,15,18,13,21.40
2016,09,15,18,14,21.30
2016,09,15,18,15,21.20
2016,09,15,18,16,21.10
2016,09,15,18,17,21.00
2016,09,15,18,18,20.90
2016,09,15,18,19,20.80
2016,09,15,18,20,20.70
2016,09,15,18,21,20.60
2016,09,15,18,22,20.50
2016,09,15,18,23,20.40
2016,09,15,18,24,20.30
2016,09,15,18,25,20.20
2016,09,15,18,26,20.10
2016,09,15,18,27,20.00
2016,09,15,18,28,19.90
2016,09,15,18,29,19.90
2016,09,15,18,30,19.80
2016,09,15,18,31,19.70
2016,09,15,18,32,19.60
2016,09,15,18,33,19.50
2016,09,15,18,34,19.50
2016,09,15,18,35,19.40
2016,09,15,18,36,19.30
2016,09,15,18,37,19.20
2016,09,15,18,38,19.20
2016,09,15,18,39,19.10
2016,09,15,18,40,19.00
2016,09,15,18,41,19.00
2016,09,15,18,42,18.90
2016,09,15,18,43,18.80
2016,09,15,18,44,18.80
2016,09,15,18,45,18.70
2016,09,15,18,46,18.60
2016,09,15,18,47,18.60
2016,09,15,18,48,18.50
2016,09,15,18,49,18.40
2016,09,15,18,50,18.40
2016,09,15,18,51,18.30
2016,09,15,18,52,18.30
2016,09,15,18,53,18.20
2016,09,15,18,54,18.20
2016,09,15,18,55,18.10
2016,09,15,18,56,18.10
2016,09,15,18,57,18.00
2016,09,15,18,58,18.00
2016,09,15,18,59,17.90
2016,09,15,19,00,17.90
2016,09,15,19,01,17.80
2016,09,15,19,02,17.80
2016,09,15,19,03,17.70
2016,09,15,19,04,17.70
2016,09,15,19,05,17.60
2016,09,15,19,06,17.60
2016,09,15,19,07,17.50
2016,09,15,19,08,17.50
2016,09,15,19,09,17.40
2016,09,15,19,10,17.40
2016,09,15,19,11,17.30
2016,09,15,19,12,17.30
2016,09,15,19,13,17.30
2016,09,15,19,14,17.20
2016,09,15,19,15,17.20
2016,09,15,19,16,17.10
2016,09,15,19,17,17.10
2016,09,15,19,18,17.00
2016,09,15,19,19,17.00
2016,09,15,19,20,17.00
2016,09,15,19,21,16.90
2016,09,15,19,22,16.90
2016,09,15,19,23,16.90
2016,09,15,19,24,16.80
2016,09,15,19,25,16.80
2016,09,15,19,26,16.80
2016,09,15,19,27,16.70
2016,09,15,19,28,16.70
2016,09,15,19,29,16.70
2016,09,15,19,30,16.60
2016,09,15,19,31,16.60
2016,09,15,19,32,16.60
2016,09,15,19,33,16.50
2016,09,15,19,34,16.50
2016,09,15,19,35,16.40
2016,09,15,19,36,16.40
2016,09,15,19,37,16.40
2016,09,15,19,38,16.30
2016,09,15,19,39,16.30
2016,09,15,19,40,16.30
2016,09,15,19,41,16.20
2016,09,15,19,42,16.20
2016,09,15,19,43,16.20
2016,09,15,19,44,16.10
2016,09,15,19,45,16.10
2016,09,15,19,46,16.00
2016,09,15,19,47,16.00
2016,09,15,19,48,15.90
2016,09,15,19,49,15.90
2016,09,15,19,50,15.80
2016,09,15,19,51,15.80
2016,09,15,19,52,15.70
2016,09,15,19,53,15.70
2016,09,15,19,54,15.70
2016,09,15,19,55,15.60
2016,09,15,19,56,15.60
2016,09,15,19,57,15.60
2016,09,15,19,58,15.50
2016,09,15,19,59,15.40
2016,09,15,20,00,15.40
2016,09,15,20,01,15.40
2016,09,15,20,02,15.30
2016,09,15,20,03,15.30
2016,09,15,20,04,15.20
2016,09,15,20,05,15.20
2016,09,15,20,06,15.20
2016,09,15,20,07,15.10
2016,09,15,20,08,15.10
2016,09,15,20,09,15.10
2016,09,15,20,10,15.00
2016,09,15,20,11,15.00
2016,09,15,20,12,14.90
2016,09,15,20,13,14.90
2016,09,15,20,14,14.80
2016,09,15,20,15,14.80
2016,09,15,20,16,14.80
2016,09,15,20,17,14.70
2016,09,15,20,18,14.60
2016,09,15,20,19,14.60
2016,09,15,20,20,14.50
2016,09,15,20,21,14.40
2016,09,15,20,22,14.40
2016,09,15,20,23,14.30
2016,09,15,20,24,14.30
2016,09,15,20,25,14.20
2016,09,15,20,26,14.20
2016,09,15,20,27,14.10
2016,09,15,20,28,14.10
2016,09,15,20,29,14.00
2016,09,15,20,30,14.00
2016,09,15,20,31,13.90
2016,09,15,20,32,13.80
2016,09,15,20,33,13.80
2016,09,15,20,34,13.80
2016,09,15,20,35,13.70
2016,09,15,20,36,13.70
2016,09,15,20,37,13.60
2016,09,15,20,38,13.60
2016,09,15,20,39,13.60
2016,09,15,20,40,13.60
2016,09,15,20,41,13.50
2016,09,15,20,42,13.50
2016,09,15,20,43,13.40
2016,09,15,20,44,13.40
2016,09,15,20,45,13.40
2016,09,15,20,46,13.40
2016,09,15,20,47,13.30
2016,09,15,20,48,13.30
2016,09,15,20,49,13.30
2016,09,15,20,50,13.20
2016,09,15,20,51,13.20
2016,09,15,20,52,13.20
2016,09,15,20,53,13.10
2016,09,15,20,54,13.10
2016,09,15,20,55,13.10
2016,09,15,20,56,13.10
2016,09,15,20,57,13.00
2016,09,15,20,58,13.00
2016,09,15,20,59,13.00
2016,09,15,21,00,13.00
2016,09,15,21,01,13.00
2016,09,15,21,02,13.00
2016,09,15,21,03,12.90
2016,09,15,21,04,12.90
2016,09,15,21,05,12.90
2016,09,15,21,06,12.90
2016,09,15,21,07,12.90
2016,09,15,21,08,12.90
2016,09,15,21,09,12.90
2016,09,15,21,10,12.90
2016,09,15,21,11,12.90
2016,09,15,21,12,12.90
2016,09,15,21,13,12.90
2016,09,15,21,14,12.90
2016,09,15,21,15,12.90
2016,09,15,21,16,12.90
2016,09,15,21,17,12.90
2016,09,15,21,18,12.90
2016,09,15,21,19,12.90
2016,09,15,21,20,12.90
2016,09,15,21,21,12.90
2016,09,15,21,22,12.90
2016,09,15,21,23,12.90
2016,09,15,21,24,12.90
2016,09,15,21,25,12.90
2016,09,15,21,26,12.80
2016,09,15,21,27,12.80
2016,09,15,21,28,12.80
2016,09,15,21,29,12.80
2016,09,15,21,30,12.70
2016,09,15,21,31,12.70
2016,09,15,21,32,12.70
2016,09,15,21,33,12.70
2016,09,15,21,34,12.60
2016,09,15,21,35,12.60
2016,09,15,21,36,12.50
2016,09,15,21,37,12.50
2016,09,15,21,38,12.40
2016,09,15,21,39,12.40
2016,09,15,21,40,12.30
2016,09,15,21,41,12.30
2016,09,15,21,42,12.30
2016,09,15,21,43,12.30
2016,09,15,21,44,12.30
2016,09,15,21,45,12.20
2016,09,15,21,46,12.20
2016,09,15,21,47,12.20
2016,09,15,21,48,12.20
2016,09,15,21,49,12.20
2016,09,15,21,50,12.20
2016,09,15,21,51,12.10
2016,09,15,21,52,12.10
2016,09,15,21,53,12.10
2016,09,15,21,54,12.10
2016,09,15,21,55,12.10
2016,09,15,21,56,12.10
2016,09,15,21,57,12.20
2016,09,15,21,58,12.20
2016,09,15,21,59,12.20
2016,09,15,22,00,12.30
2016,09,15,22,01,12.30
2016,09,15,22,02,12.30
2016,09,15,22,03,12.30
2016,09,15,22,04,12.30
2016,09,15,22,05,12.30
2016,09,15,22,06,12.40
2016,09,15,22,07,12.40
2016,09,15,22,08,12.40
2016,09,15,22,09,12.50
2016,09,15,22,10,12.50
2016,09,15,22,11,12.60
2016,09,15,22,12,12.60
2016,09,15,22,13,12.60
2016,09,15,22,14,12.60
2016,09,15,22,15,12.60
2016,09,15,22,16,12.70
2016,09,15,22,17,12.70
2016,09,15,22,18,12.80
2016,09,15,22,19,12.80
2016,09,15,22,20,12.90
2016,09,15,22,21,12.90
2016,09,15,22,22,12.90
2016,09,15,22,23,13.00
2016,09,15,22,24,13.00
2016,09,15,22,25,13.00
2016,09,15,22,26,13.00
2016,09,15,22,27,13.00
2016,09,15,22,28,13.00
2016,09,15,22,29,13.00
2016,09,15,22,30,13.00
2016,09,15,22,31,13.00
2016,09,15,22,32,12.90
2016,09,15,22,33,12.90
2016,09,15,22,34,12.90
2016,09,15,22,35,12.90
2016,09,15,22,36,12.90
2016,09,15,22,37,12.90
2016,09,15,22,38,12.90
2016,09,15,22,39,12.80
2016,09,15,22,40,12.80
2016,09,15,22,41,12.80
2016,09,15,22,42,12.80
2016,09,15,22,43,12.70
2016,09,15,22,44,12.70
2016,09,15,22,45,12.70
2016,09,15,22,46,12.70
2016,09,15,22,47,12.60
2016,09,15,22,48,12.50
2016,09,15,22,49,12.50
2016,09,15,22,50,12.50
2016,09,15,22,51,12.50
2016,09,15,22,52,12.50
2016,09,15,22,53,12.50
2016,09,15,22,54,12.50
2016,09,15,22,55,12.50
2016,09,15,22,56,12.50
2016,09,15,22,57,12.50
2016,09,15,22,58,12.50
